Content
SEND FEEDBACK

Daily
Averages
Monthly
Summary
United States of America

HOLCOMB, KANSAS


Home > North America > United States > Kansas
Elevation: 2866 feet     Latitude: 37 59N     Longitude: 100 49W

WEATHER
 
SELECT A DAY
Number of Records: 195,038;   Date Range: 1/1/95 - 9/3/14
 
SHARE

PRINT THIS DATA

[ ← Previous Day ]
WEATHER ALMANAC - FEBRUARY 13, 2013
[ Next Day → ]
[ °C ]   °F
Weather ElementAverageHighLow
Temperature35.4 °F54 °F (2:54 pm)17.1 °F (1:54 am)
Dewpoint11.3 °F14 °F (9:54 am)6.1 °F (1:54 am)
Humidity41.7 %68 % (5:54 am)17 % (2:54 pm)
Barometer30.01 in30.09 in (8:54 am)29.92 in (3:54 pm)
Wind Speed8.9 mph13.8 mph (1:54 pm)
Wind Gust24.2 mph (12:54 pm)
Weather ElementAverage
Visibility10 mi
Wind DirectionWNW (293 °)

Weather ElementTotal
Precipitation---
Heating Degree Days29.5 (Base 65)
Averaged from 23 records on February 13, 2013
WEATHER CONDITIONS BREAKOUT
WIND DIRECTION BREAKOUT
WEATHER BY HOUR - FEBRUARY 13, 2013
[ °C ]   °F
Local TimeTemperatureDewpointHumidityBarometerVisibilityWind DirectionWind SpeedGust SpeedPrecipitationEventsConditions
1:54 AM17.1 °F6.1 °F62 %30.06 in10.0 miWNW (290°)6.9 mphClear
2:54 AM19.0 °F8.1 °F62 %30.06 in10.0 miWNW (300°)10.4 mphClear
3:54 AM23.0 °F8.1 °F53 %30.06 in10.0 miNW (320°)12.7 mphClear
4:54 AM21.0 °F9.0 °F60 %30.04 in10.0 miWNW (300°)10.4 mphClear
5:54 AM19.0 °F10.0 °F68 %30.04 in10.0 miWest (280°)6.9 mphClear
6:54 AM19.9 °F10.0 °F65 %30.06 in10.0 miWNW (290°)11.5 mphClear
7:54 AM19.9 °F10.0 °F65 %30.07 in10.0 miWNW (300°)6.9 mphClear
8:54 AM25.0 °F12.0 °F58 %30.09 in10.0 miWest (280°)10.4 mphClear
9:54 AM34.0 °F14.0 °F44 %30.07 in10.0 miWSW (250°)9.2 mphClear
10:54 AM42.1 °F12.9 °F31 %30.04 in10.0 miWSW (240°)6.9 mphClear
11:54 AM46.0 °F12.0 °F25 %30.03 in10.0 miWest (270°)8.1 mphClear
12:54 PM50.0 °F10.0 °F20 %30.00 in10.0 miWest (270°)12.7 mph24.2 mphClear
1:54 PM53.1 °F10.9 °F19 %29.96 in10.0 miWest (260°)13.8 mph19.6 mphClear
2:54 PM54.0 °F9.0 °F17 %29.93 in10.0 miWNW (290°)12.7 mph20.7 mphClear
3:54 PM54.0 °F10.0 °F17 %29.92 in10.0 miWNW (290°)9.2 mphClear
4:54 PM54.0 °F12.9 °F20 %29.92 in10.0 miNorth (360°)6.9 mphClear
5:54 PM51.1 °F12.9 °F22 %29.93 in10.0 miWNW (300°)3.5 mphClear
6:54 PM39.9 °F14.0 °F35 %29.96 in10.0 miNNW (340°)8.1 mphClear
7:54 PM34.0 °F12.9 °F42 %29.99 in10.0 miNorth (350°)8.1 mphClear
8:54 PM42.1 °F14.0 °F32 %29.98 in10.0 miNNW (330°)5.8 mphClear
9:54 PM33.1 °F14.0 °F46 %29.99 in10.0 miWest (260°)6.9 mphClear
10:54 PM32.0 °F12.9 °F45 %29.99 in10.0 miWest (280°)6.9 mphClear
11:54 PM30.9 °F14.0 °F50 %29.99 in10.0 miWNW (290°)9.2 mphClear
Hourly data recorded from KGCK, located miles away from Holcomb, Kansas







STORIES FROM OUR PARTNERS